| time (UTC) | temp F | wind direction | speed MPH | gust MPH | rain 1hr in | rain 24hr in | rain mn in | humidity % | barometer mb |
| 20260905211609 | 81 | 0 | 0.0 | 2.0 | 0.03 | 0.06 | 0.06 | 91 | 1012.1 |
| 20260905210104 | 80 | 0 | 0.0 | 0.0 | 0.06 | 0.06 | 0.06 | 92 | 1012.4 |
| 20260905204605 | 79 | 0 | 0.0 | 10.0 | 0.06 | 0.06 | 0.06 | 91 | 1012.2 |
| 20260905203107 | 79 | 0 | 2.0 | 9.0 | 0.06 | 0.06 | 0.06 | 90 | 1012.5 |
| 20260905201603 | 83 | 155 | 3.0 | 11.0 | 0.03 | 0.03 | 0.03 | 83 | 1012.4 |
| 20260905200109 | 85 | 73 | 5.0 | 15.0 | 0.00 | 0.00 | 0.00 | 79 | 1012.5 |
| 20260905194607 | 92 | 19 | 5.0 | 9.0 | 0.00 | 0.05 | 0.00 | 65 | 1012.5 |
| 20260905193104 | 96 | 0 | 2.0 | 8.0 | 0.00 | 0.05 | 0.00 | 61 | 1012.4 |
| 20260905191604 | 95 | 175 | 1.0 | 10.0 | 0.00 | 0.05 | 0.00 | 64 | 1012.6 |
| 20260905190113 | 94 | 0 | 2.0 | 11.0 | 0.00 | 0.05 | 0.00 | 62 | 1012.7 |
| 20260905184604 | 94 | 206 | 7.0 | 14.0 | 0.00 | 0.05 | 0.00 | 63 | 1012.8 |
| 20260905183125 | 96 | 237 | 2.0 | 8.0 | 0.00 | 0.05 | 0.00 | 60 | 1012.6 |
| 20260905181604 | 95 | 257 | 1.0 | 9.0 | 0.00 | 0.05 | 0.00 | 61 | 1012.8 |
| 20260905174605 | 93 | 321 | 0.0 | 5.0 | 0.00 | 0.05 | 0.00 | 68 | 1013.3 |
| 20260905173103 | 92 | 260 | 0.0 | 5.0 | 0.00 | 0.05 | 0.00 | 67 | 1013.6 |
| 20260905171605 | 93 | 236 | 0.0 | 6.0 | 0.00 | 0.05 | 0.00 | 68 | 1013.8 |
| 20260905164607 | 93 | 309 | 1.0 | 6.0 | 0.00 | 0.05 | 0.00 | 67 | 1014.4 |
| 20260905163106 | 93 | 0 | 1.0 | 6.0 | 0.00 | 0.05 | 0.00 | 69 | 1014.4 |
| 20260905161601 | 93 | 189 | 3.0 | 8.0 | 0.00 | 0.05 | 0.00 | 67 | 1014.6 |
| 20260905160123 | 92 | 0 | 2.0 | 8.0 | 0.00 | 0.05 | 0.00 | 69 | 1014.9 |
| 20260905154607 | 92 | 228 | 2.0 | 6.0 | 0.00 | 0.05 | 0.00 | 71 | 1014.9 |
| 20260905153115 | 90 | 0 | 0.0 | 6.0 | 0.00 | 0.05 | 0.00 | 72 | 1014.9 |
| 20260905151633 | 91 | 284 | 0.0 | 7.0 | 0.00 | 0.05 | 0.00 | 73 | 1015.0 |
| 20260905150101 | 90 | 207 | 1.0 | 6.0 | 0.00 | 0.05 | 0.00 | 75 | 1014.9 |
| 20260905144602 | 88 | 189 | 3.0 | 7.0 | 0.00 | 0.05 | 0.00 | 77 | 1015.1 |
| 20260905143100 | 88 | 226 | 1.0 | 6.0 | 0.00 | 0.05 | 0.00 | 79 | 1015.1 |
| 20260905141604 | 88 | 0 | 0.0 | 3.0 | 0.00 | 0.05 | 0.00 | 80 | 1015.1 |
| 20260905140110 | 87 | 0 | 0.0 | 5.0 | 0.00 | 0.05 | 0.00 | 82 | 1014.9 |
| 20260905134601 | 85 | 186 | 1.0 | 3.0 | 0.00 | 0.05 | 0.00 | 85 | 1015.1 |
| 20260905133107 | 84 | 0 | 0.0 | 0.0 | 0.00 | 0.05 | 0.00 | 86 | 1015.0 |
| 20260905131611 | 83 | 0 | 0.0 | 2.0 | 0.00 | 0.05 | 0.00 | 89 | 1015.1 |
| 20260905130110 | 82 | 0 | 1.0 | 5.0 | 0.00 | 0.05 | 0.00 | 90 | 1015.1 |
| 20260905124603 | 80 | 193 | 0.0 | 1.0 | 0.00 | 0.05 | 0.00 | 92 | 1015.0 |
| 20260905123102 | 79 | 0 | 0.0 | 4.0 | 0.00 | 0.05 | 0.00 | 94 | 1014.9 |
| 20260905121602 | 78 | 0 | 1.0 | 4.0 | 0.00 | 0.05 | 0.00 | 96 | 1014.8 |
| 20260905120112 | 77 | 0 | 0.0 | 0.0 | 0.00 | 0.05 | 0.00 | 97 | 1014.7 |
| 20260905114601 | 76 | 0 | 0.0 | 0.0 | 0.00 | 0.05 | 0.00 | 98 | 1014.5 |
| 20260905113105 | 75 | 0 | 0.0 | 0.0 | 0.00 | 0.05 | 0.00 | 98 | 1014.3 |
| 20260905111613 | 75 | 0 | 0.0 | 0.0 | 0.00 | 0.05 | 0.00 | 98 | 1014.4 |
| 20260905110105 | 75 | 0 | 0.0 | 0.0 | 0.00 | 0.05 | 0.00 | 97 | 1014.2 |
| 20260905104607 | 75 | 0 | 0.0 | 0.0 | 0.00 | 0.05 | 0.00 | 97 | 1014.1 |
| 20260905103102 | 75 | 0 | 0.0 | 0.0 | 0.00 | 0.05 | 0.00 | 97 | 1014.2 |
| 20260905101606 | 75 | 0 | 0.0 | 0.0 | 0.00 | 0.05 | 0.00 | 97 | 1013.9 |
| 20260905100100 | 75 | 0 | 0.0 | 0.0 | 0.00 | 0.05 | 0.00 | 97 | 1013.9 |
| 20260905094602 | 75 | 0 | 0.0 | 0.0 | 0.00 | 0.05 | 0.00 | 97 | 1014.0 |
| 20260905093102 | 75 | 0 | 0.0 | 0.0 | 0.00 | 0.05 | 0.00 | 96 | 1014.1 |
| 20260905091609 | 76 | 0 | 0.0 | 0.0 | 0.00 | 0.05 | 0.00 | 96 | 1014.0 |
| 20260905090104 | 76 | 0 | 0.0 | 0.0 | 0.00 | 0.05 | 0.00 | 96 | 1013.9 |
| 20260905084620 | 76 | 0 | 0.0 | 0.0 | 0.00 | 0.05 | 0.00 | 96 | 1013.8 |
| 20260905083100 | 76 | 0 | 0.0 | 0.0 | 0.00 | 0.05 | 0.00 | 96 | 1013.9 |
| 20260905081604 | 76 | 0 | 0.0 | 0.0 | 0.00 | 0.05 | 0.00 | 96 | 1014.0 |
| 20260905080059 | 76 | 0 | 0.0 | 0.0 | 0.00 | 0.05 | 0.00 | 96 | 1013.8 |
| 20260905074606 | 76 | 0 | 0.0 | 0.0 | 0.00 | 0.05 | 0.00 | 95 | 1013.8 |
| 20260905073106 | 76 | 0 | 0.0 | 0.0 | 0.00 | 0.05 | 0.00 | 95 | 1013.8 |
| 20260905071608 | 77 | 0 | 0.0 | 0.0 | 0.00 | 0.05 | 0.00 | 95 | 1014.0 |
| 20260905070105 | 77 | 0 | 0.0 | 0.0 | 0.00 | 0.05 | 0.00 | 94 | 1014.0 |
| 20260905064602 | 77 | 0 | 0.0 | 0.0 | 0.00 | 0.05 | 0.00 | 94 | 1014.1 |
| 20260905063101 | 77 | 0 | 0.0 | 0.0 | 0.00 | 0.05 | 0.00 | 94 | 1014.2 |
| 20260905061610 | 77 | 0 | 0.0 | 1.0 | 0.00 | 0.05 | 0.00 | 95 | 1014.2 |
| 20260905060106 | 77 | 0 | 0.0 | 0.0 | 0.00 | 0.05 | 0.00 | 95 | 1014.3 |
| 20260905054603 | 78 | 0 | 0.0 | 0.0 | 0.00 | 0.05 | 0.00 | 95 | 1014.4 |
| 20260905053141 | 78 | 0 | 0.0 | 0.0 | 0.00 | 0.05 | 0.00 | 95 | 1014.8 |
| 20260905051607 | 78 | 0 | 0.0 | 0.0 | 0.00 | 0.05 | 0.00 | 95 | 1015.0 |
| 20260905050106 | 78 | 0 | 0.0 | 0.0 | 0.00 | 0.05 | 0.00 | 94 | 1015.0 |
| 20260905044603 | 79 | 0 | 0.0 | 0.0 | 0.00 | 0.05 | 0.00 | 94 | 1015.3 |
| 20260905043103 | 79 | 0 | 0.0 | 1.0 | 0.00 | 0.05 | 0.00 | 94 | 1015.2 |
| 20260905041604 | 78 | 0 | 0.0 | 0.0 | 0.00 | 0.05 | 0.00 | 94 | 1015.2 |
| 20260905040105 | 78 | 0 | 0.0 | 0.0 | 0.00 | 0.05 | 0.00 | 94 | 1015.2 |
| 20260905034602 | 78 | 0 | 0.0 | 0.0 | 0.00 | 0.05 | 0.05 | 94 | 1015.2 |
| 20260905033107 | 78 | 0 | 0.0 | 0.0 | 0.00 | 0.05 | 0.05 | 93 | 1015.4 |
| 20260905031603 | 78 | 0 | 0.0 | 0.0 | 0.00 | 0.05 | 0.05 | 93 | 1015.5 |
| 20260905024623 | 79 | 0 | 0.0 | 0.0 | 0.00 | 0.05 | 0.05 | 93 | 1015.6 |
| 20260905023124 | 79 | 0 | 0.0 | 0.0 | 0.00 | 0.05 | 0.05 | 92 | 1015.7 |
| 20260905021609 | 79 | 0 | 0.0 | 0.0 | 0.00 | 0.05 | 0.05 | 91 | 1015.6 |
| 20260905020111 | 79 | 0 | 0.0 | 0.0 | 0.00 | 0.05 | 0.05 | 91 | 1015.7 |
| 20260905014617 | 79 | 0 | 0.0 | 0.0 | 0.00 | 0.05 | 0.05 | 92 | 1015.5 |
| 20260905013108 | 79 | 0 | 0.0 | 0.0 | 0.00 | 0.05 | 0.05 | 92 | 1015.3 |
| 20260905011622 | 79 | 0 | 0.0 | 0.0 | 0.00 | 0.05 | 0.05 | 92 | 1015.2 |
| 20260905004608 | 80 | 0 | 0.0 | 0.0 | 0.00 | 0.05 | 0.05 | 92 | 1015.0 |
| 20260905003103 | 81 | 0 | 0.0 | 0.0 | 0.00 | 0.05 | 0.05 | 91 | 1015.2 |
| 20260905001603 | 81 | 0 | 0.0 | 3.0 | 0.00 | 0.05 | 0.05 | 91 | 1015.0 |
| 20260905000109 | 81 | 0 | 1.0 | 6.0 | 0.00 | 0.05 | 0.05 | 90 | 1015.1 |
| 20260904234612 | 81 | 345 | 4.0 | 8.0 | 0.00 | 0.05 | 0.05 | 90 | 1015.0 |
| 20260904233103 | 82 | 0 | 0.0 | 9.0 | 0.00 | 0.05 | 0.05 | 88 | 1015.1 |
| 20260904231603 | 82 | 323 | 4.0 | 10.0 | 0.00 | 0.05 | 0.05 | 88 | 1014.9 |
| 20260904230108 | 82 | 0 | 0.0 | 1.0 | 0.00 | 0.05 | 0.05 | 87 | 1014.6 |
| 20260904224614 | 82 | 0 | 0.0 | 0.0 | 0.00 | 0.05 | 0.05 | 86 | 1014.6 |
| 20260904223105 | 83 | 0 | 0.0 | 0.0 | 0.00 | 0.05 | 0.05 | 85 | 1014.5 |
| 20260904221612 | 83 | 0 | 0.0 | 4.0 | 0.00 | 0.05 | 0.05 | 85 | 1014.2 |
| 20260904220104 | 84 | 0 | 1.0 | 10.0 | 0.00 | 0.05 | 0.05 | 84 | 1013.9 |
| 20260904214605 | 88 | 0 | 1.0 | 6.0 | 0.00 | 0.05 | 0.05 | 78 | 1013.4 |
| 20260904213105 | 89 | 0 | 0.0 | 1.0 | 0.00 | 0.05 | 0.05 | 75 | 1013.6 |